CW7615 Weather Reports


time (UTC)temp
C
wind
direction
speed
KPH
gust
KPH
rain 1hr
cm
rain 24hr
cm
rain mn
cm
humidity
%
barometer
mb
20260507033004 15 19 8.0 12.9 0.00 0.00 0.00 67 1010.0
20260507032504 14 355 8.0 14.5 0.00 0.00 0.00 67 1010.1
20260507032003 14 350 6.4 14.5 0.00 0.00 0.00 67 1010.1
20260507031503 14 360 9.7 14.5 0.00 0.00 0.00 66 1010.2
20260507031004 14 5 8.0 14.5 0.00 0.00 0.00 67 1010.2
20260507030503 14 17 9.7 14.5 0.00 0.00 0.00 67 1010.2
20260507030004 14 360 8.0 14.5 0.00 0.00 0.00 67 1010.3
20260507025503 14 350 8.0 14.5 0.00 0.00 0.00 67 1010.2
20260507025003 13 355 9.7 14.5 0.00 0.00 0.00 67 1010.3
20260507024502 13 355 8.0 14.5 0.00 0.00 0.00 67 1010.3
20260507024002 13 355 8.0 16.1 0.00 0.00 0.00 67 1010.2
20260507023500 13 350 11.3 16.1 0.00 0.00 0.00 66 1010.2
20260507023100 13 10 8.0 14.5 0.00 0.00 0.00 66 1010.2
20260507022559 13 351 6.4 14.5 0.00 0.00 0.00 67 1010.3
20260507022059 13 360 6.4 14.5 0.00 0.00 0.00 67 1010.2
20260507021559 13 333 6.4 14.5 0.00 0.00 0.00 67 1010.1
20260507021057 13 346 6.4 14.5 0.00 0.00 0.00 67 1010.2
20260507020555 13 355 6.4 14.5 0.00 0.00 0.00 67 1010.2
20260507020157 13 355 8.0 14.5 0.00 0.00 0.00 67 1010.3
20260507015553 13 355 4.8 8.0 0.00 0.00 0.00 67 1010.3
20260507015056 13 343 3.2 9.7 0.00 0.00 0.00 67 1010.5
20260507014554 14 345 4.8 9.7 0.00 0.00 0.00 66 1010.3
20260507014053 14 5 4.8 9.7 0.00 0.00 0.00 65 1010.3
20260507013553 14 313 3.2 9.7 0.00 0.00 0.00 66 1010.3
20260507013059 14 313 4.8 9.7 0.00 0.00 0.00 66 1010.3
20260507012551 14 333 1.6 9.7 0.00 0.00 0.00 65 1010.2
20260507012052 14 314 4.8 12.9 0.00 0.00 0.00 65 1010.2
20260507011555 14 315 6.4 12.9 0.00 0.00 0.00 65 1010.3
20260507011051 14 340 6.4 9.7 0.00 0.00 0.00 65 1010.3
20260507010550 14 340 3.2 9.7 0.00 0.00 0.00 65 1010.3
20260507010049 14 347 4.8 12.9 0.00 0.00 0.00 65 1010.3
20260507005550 14 360 6.4 14.5 0.00 0.00 0.00 66 1010.2
20260507005047 14 5 8.0 12.9 0.00 0.00 0.00 66 1010.2
20260507004548 14 9 6.4 16.1 0.00 0.00 0.00 66 1010.2
20260507004046 14 15 6.4 16.1 0.00 0.00 0.00 67 1010.2
20260507003550 14 355 9.7 16.1 0.00 0.00 0.00 67 1010.3
20260507003046 14 5 6.4 14.5 0.00 0.00 0.00 68 1010.3
20260507002544 15 349 6.4 14.5 0.00 0.00 0.00 68 1010.4
20260507002142 15 355 9.7 14.5 0.00 0.00 0.00 68 1010.6
20260507001542 15 355 8.0 14.5 0.00 0.00 0.00 69 1010.6
20260507001038 15 344 4.8 9.7 0.00 0.00 0.00 69 1010.6
20260507000540 15 342 3.2 8.0 0.00 0.00 0.00 69 1010.7
20260507000040 15 344 3.2 8.0 0.00 0.00 0.00 70 1010.7
20260506235537 15 5 4.8 12.9 0.00 0.00 0.00 70 1010.7
20260506235036 15 23 8.0 12.9 0.00 0.00 0.00 70 1010.8
20260506234536 15 325 4.8 8.0 0.00 0.00 0.00 70 1010.9
20260506234035 15 344 4.8 8.0 0.00 0.00 0.00 70 1011.0
20260506233536 15 345 0.0 3.2 0.00 0.00 0.00 71 1011.1
20260506233036 15 344 0.0 6.4 0.00 0.00 0.00 71 1011.1
20260506232533 15 342 1.6 6.4 0.00 0.00 0.00 71 1011.1
20260506232033 15 347 1.6 6.4 0.00 0.00 0.00 71 1011.0
20260506231532 15 337 3.2 6.4 0.00 0.00 0.00 71 1011.0
20260506231033 15 347 3.2 8.0 0.00 0.00 0.00 71 1011.1
20260506230531 15 342 3.2 8.0 0.00 0.00 0.00 71 1011.0
20260506230032 15 351 4.8 8.0 0.00 0.00 0.00 72 1010.9
20260506225530 15 355 0.0 6.4 0.00 0.00 0.00 71 1011.0
20260506225031 15 333 1.6 6.4 0.00 0.00 0.00 71 1011.1
20260506224530 15 348 1.6 6.4 0.00 0.00 0.00 70 1011.1
20260506224028 15 351 1.6 6.4 0.00 0.00 0.00 72 1011.1
20260506223528 15 344 0.0 4.8 0.00 0.00 0.00 74 1011.2
20260506223027 15 344 0.0 3.2 0.00 0.00 0.00 72 1011.1
20260506222531 15 344 0.0 4.8 0.00 0.00 0.00 72 1011.1
20260506222027 16 344 0.0 4.8 0.00 0.00 0.00 74 1011.0
20260506221526 16 344 0.0 1.6 0.00 0.00 0.00 72 1011.1
20260506221024 15 344 0.0 8.0 0.00 0.00 0.00 71 1011.1
20260506220523 15 344 3.2 8.0 0.00 0.00 0.00 71 1011.0
20260506220023 16 350 3.2 6.4 0.00 0.00 0.00 71 1011.0
20260506215523 16 346 3.2 6.4 0.00 0.00 0.00 71 1011.0
20260506215022 16 338 1.6 4.8 0.00 0.00 0.00 72 1011.1
20260506214522 16 332 0.0 1.6 0.00 0.00 0.00 73 1011.1
20260506214022 16 332 0.0 3.2 0.00 0.00 0.00 73 1010.9
20260506213521 16 332 0.0 3.2 0.00 0.00 0.00 73 1011.0
20260506213021 16 331 0.0 0.0 0.00 0.00 0.00 74 1010.9
20260506212522 16 331 0.0 1.6 0.00 0.00 0.00 74 1011.0
20260506212022 16 331 0.0 1.6 0.00 0.00 0.00 75 1011.0
20260506211522 16 331 0.0 1.6 0.00 0.00 0.00 74 1011.0
20260506211020 16 331 0.0 3.2 0.00 0.00 0.00 75 1011.0
20260506210023 16 331 0.0 4.8 0.00 0.00 0.00 75 1010.9
20260506205519 16 331 0.0 4.8 0.00 0.00 0.00 75 1010.9
20260506205023 16 331 1.6 4.8 0.00 0.00 0.00 76 1010.9
20260506204520 16 63 1.6 4.8 0.00 0.00 0.00 76 1010.8
20260506204018 16 130 0.0 1.6 0.00 0.00 0.00 76 1010.9
20260506203518 16 130 0.0 0.0 0.00 0.00 0.00 77 1010.8
20260506203020 16 130 0.0 1.6 0.00 0.00 0.00 77 1010.7
20260506202516 16 130 0.0 1.6 0.00 0.00 0.00 76 1010.7
20260506202021 16 130 0.0 0.0 0.00 0.00 0.00 76 1010.6
20260506201516 16 130 0.0 0.0 0.00 0.00 0.00 76 1010.6
20260506201019 16 130 0.0 0.0 0.00 0.00 0.00 76 1010.4
20260506200522 16 130 0.0 0.0 0.00 0.00 0.00 76 1010.3
20260506200016 17 130 0.0 1.6 0.00 0.00 0.00 76 1010.3
20260506195516 17 130 0.0 3.2 0.00 0.00 0.00 76 1010.2
20260506195016 17 130 0.0 3.2 0.00 0.00 0.00 76 1010.0
20260506194516 17 130 0.0 3.2 0.00 0.00 0.00 76 1009.9
20260506194015 17 130 0.0 3.2 0.00 0.00 0.00 76 1009.7
20260506193515 17 130 0.0 3.2 0.00 0.00 0.00 76 1009.6
20260506193016 17 130 0.0 4.8 0.00 0.00 0.00 76 1009.7
20260506192514 17 129 0.0 4.8 0.00 0.00 0.00 75 1009.7
20260506192014 17 130 0.0 6.4 0.00 0.00 0.00 75 1009.7
20260506191514 17 130 1.6 6.4 0.00 0.00 0.00 74 1009.6
20260506191014 17 124 3.2 9.7 0.00 0.00 0.00 74 1009.7
20260506190512 17 125 3.2 9.7 0.00 0.00 0.00 73 1009.6
20260506190013 17 142 3.2 8.0 0.00 0.00 0.00 71 1009.5
20260506185511 17 132 3.2 8.0 0.00 0.00 0.00 69 1009.6
20260506185016 18 158 3.2 8.0 0.00 0.00 0.00 64 1009.4
20260506184512 18 150 3.2 8.0 0.00 0.00 0.00 63 1009.3
20260506184011 18 138 1.6 6.4 0.00 0.00 0.00 60 1009.2
20260506183511 18 138 1.6 6.4 0.00 0.00 0.00 59 1009.3
20260506183012 18 138 1.6 6.4 0.00 0.00 0.00 58 1009.1
20260506182509 18 138 0.0 4.8 0.00 0.00 0.00 57 1009.0
20260506182011 18 138 1.6 4.8 0.00 0.00 0.00 56 1009.0
20260506181510 18 126 1.6 4.8 0.00 0.00 0.00 56 1008.9
20260506181009 18 126 0.0 0.0 0.00 0.00 0.00 56 1009.1
20260506180509 18 126 0.0 0.0 0.00 0.00 0.00 54 1009.2
20260506180013 18 126 0.0 0.0 0.00 0.00 0.00 54 1009.2
20260506175507 18 126 0.0 1.6 0.00 0.00 0.00 53 1009.3
20260506175007 18 126 0.0 4.8 0.00 0.00 0.00 56 1009.4
20260506174507 18 126 1.6 4.8 0.00 0.00 0.00 58 1009.4
20260506174007 18 126 1.6 8.0 0.00 0.00 0.00 59 1009.7
20260506173507 18 126 3.2 8.0 0.00 0.00 0.00 59 1009.6
20260506173008 18 127 3.2 6.4 0.00 0.00 0.00 59 1009.7
20260506172507 18 128 1.6 8.0 0.00 0.00 0.00 58 1009.8
20260506172008 19 131 3.2 11.3 0.00 0.00 0.00 59 1009.8
20260506171512 19 147 4.8 11.3 0.00 0.00 0.00 59 1009.8
20260506171006 19 101 6.4 11.3 0.00 0.00 0.00 59 1009.8
20260506170505 20 109 6.4 11.3 0.00 0.00 0.00 60 1009.8
20260506170007 20 127 4.8 11.3 0.00 0.00 0.00 59 1009.7
20260506165505 20 140 1.6 11.3 0.00 0.00 0.00 57 1009.6
20260506165005 20 153 4.8 11.3 0.00 0.00 0.00 57 1009.4
20260506164505 20 142 3.2 6.4 0.00 0.00 0.00 56 1009.4
20260506164009 20 145 3.2 8.0 0.00 0.00 0.00 56 1009.5
20260506163507 20 150 3.2 8.0 0.00 0.00 0.00 56 1009.5
20260506163008 20 107 0.0 12.9 0.00 0.00 0.00 55 1009.5
20260506162504 20 115 0.0 9.7 0.00 0.00 0.00 55 1009.6
20260506162105 20 115 3.2 11.3 0.00 0.00 0.00 55 1009.5
20260506161504 20 132 3.2 12.9 0.00 0.00 0.00 56 1009.5
20260506161005 20 108 6.4 17.7 0.00 0.00 0.00 53 1009.7
20260506160503 20 115 9.7 17.7 0.00 0.00 0.00 52 1009.6
20260506160003 20 111 9.7 16.1 0.00 0.00 0.00 51 1009.5
20260506155503 20 98 8.0 16.1 0.00 0.00 0.00 49 1009.4
20260506155003 20 112 6.4 17.7 0.00 0.00 0.00 49 1009.4
20260506154503 20 105 4.8 17.7 0.00 0.00 0.00 50 1009.4
20260506154003 21 134 6.4 17.7 0.00 0.00 0.00 49 1009.4
20260506153503 21 112 9.7 17.7 0.00 0.00 0.00 50 1009.4
20260506153002 21 121 8.0 16.1 0.00 0.00 0.00 49 1009.5
20260506152502 21 187 8.0 19.3 0.00 0.00 0.00 50 1009.7
20260506152001 21 122 8.0 19.3 0.00 0.00 0.00 50 1009.6
20260506151601 21 94 9.7 17.7 0.00 0.00 0.00 49 1009.6
20260506151004 21 122 8.0 20.9 0.00 0.00 0.00 49 1009.7
20260506150502 21 105 4.8 20.9 0.00 0.00 0.00 49 1009.7
20260506150002 21 67 8.0 20.9 0.00 0.00 0.00 49 1009.8
20260506145501 21 128 9.7 20.9 0.00 0.00 0.00 49 1009.9
20260506145001 21 146 6.4 20.9 0.00 0.00 0.00 49 1009.9
20260506144501 21 96 8.0 17.7 0.00 0.00 0.00 49 1010.0
20260506144059 21 157 8.0 16.1 0.00 0.00 0.00 49 1009.9
20260506143559 21 138 4.8 16.1 0.00 0.00 0.00 49 1010.0
20260506143200 21 119 8.0 16.1 0.00 0.00 0.00 50 1010.1
20260506142600 21 90 6.4 17.7 0.00 0.00 0.00 50 1010.3
20260506142059 21 122 9.7 22.5 0.00 0.00 0.00 48 1010.3
20260506141604 21 118 8.0 25.7 0.00 0.00 0.00 48 1010.3
20260506141101 21 151 11.3 25.7 0.00 0.00 0.00 46 1010.6
20260506140602 21 139 9.7 19.3 0.00 0.00 0.00 46 1010.6
20260506140119 21 164 9.7 22.5 0.00 0.00 0.00 46 1010.5
20260506135602 21 138 6.4 22.5 0.00 0.00 0.00 46 1010.4
20260506135058 21 121 6.4 24.1 0.00 0.00 0.00 45 1010.4
20260506134559 22 119 9.7 19.3 0.00 0.00 0.00 45 1010.4
20260506134058 21 160 3.2 16.1 0.00 0.00 0.00 46 1010.3
20260506133557 21 142 8.0 16.1 0.00 0.00 0.00 46 1010.4
20260506133104 21 194 8.0 16.1 0.00 0.00 0.00 44 1010.3
20260506132557 21 92 6.4 17.7 0.00 0.00 0.00 44 1010.3
20260506132059 21 96 9.7 19.3 0.00 0.00 0.00 46 1010.2
20260506131557 21 115 8.0 19.3 0.00 0.00 0.00 44 1010.2
20260506131059 21 132 6.4 19.3 0.00 0.00 0.00 44 1010.1
20260506130558 21 90 11.3 19.3 0.00 0.00 0.00 43 1010.1
20260506130056 21 138 4.8 17.7 0.00 0.00 0.00 44 1010.1
20260506125555 21 138 9.7 17.7 0.00 0.00 0.00 44 1010.2
20260506125056 21 92 11.3 22.5 0.00 0.00 0.00 44 1010.2
20260506124557 22 132 9.7 22.5 0.00 0.00 0.00 44 1010.1
20260506124056 22 139 6.4 16.1 0.00 0.00 0.00 47 1010.1
20260506123559 22 128 9.7 16.1 0.00 0.00 0.00 46 1010.2
20260506123055 22 103 4.8 16.1 0.00 0.00 0.00 45 1010.2
20260506122558 22 105 9.7 16.1 0.00 0.00 0.00 44 1010.3
20260506122055 22 101 4.8 14.5 0.00 0.00 0.00 45 1010.4
20260506121555 22 115 8.0 16.1 0.00 0.00 0.00 46 1010.4
20260506121054 21 84 8.0 17.7 0.00 0.00 0.00 47 1010.5
20260506120554 21 123 9.7 20.9 0.00 0.00 0.00 48 1010.5
20260506120054 21 128 9.7 20.9 0.00 0.00 0.00 48 1010.5
20260506115553 22 111 9.7 14.5 0.00 0.00 0.00 49 1010.5
20260506115054 22 132 6.4 14.5 0.00 0.00 0.00 49 1010.5
20260506114558 22 103 1.6 14.5 0.00 0.00 0.00 49 1010.6
20260506114051 22 72 3.2 14.5 0.00 0.00 0.00 46 1010.6
20260506113551 22 132 6.4 16.1 0.00 0.00 0.00 47 1010.6
20260506113058 22 109 11.3 16.1 0.00 0.00 0.00 47 1010.7
20260506112552 22 113 8.0 16.1 0.00 0.00 0.00 47 1010.7
20260506112052 22 115 1.6 14.5 0.00 0.00 0.00 44 1010.6
20260506111552 22 112 8.0 20.9 0.00 0.00 0.00 43 1010.6
20260506111050 22 201 11.3 20.9 0.00 0.00 0.00 43 1010.5
20260506110549 22 124 9.7 19.3 0.00 0.00 0.00 43 1010.6
20260506110048 22 109 8.0 14.5 0.00 0.00 0.00 45 1010.5
20260506105548 22 121 6.4 16.1 0.00 0.00 0.00 47 1010.5
20260506105046 22 113 3.2 16.1 0.00 0.00 0.00 46 1010.6
20260506104554 22 108 8.0 14.5 0.00 0.00 0.00 47 1010.6
20260506104045 22 105 3.2 14.5 0.00 0.00 0.00 47 1010.7
20260506103544 21 105 6.4 14.5 0.00 0.00 0.00 47 1010.7
20260506103047 21 127 6.4 14.5 0.00 0.00 0.00 48 1010.8
20260506102544 22 113 4.8 14.5 0.00 0.00 0.00 49 1010.8
20260506102044 22 113 8.0 14.5 0.00 0.00 0.00 50 1010.9
20260506101549 21 85 4.8 14.5 0.00 0.00 0.00 48 1011.0
20260506101043 22 91 8.0 14.5 0.00 0.00 0.00 49 1011.1
20260506100542 22 133 6.4 12.9 0.00 0.00 0.00 52 1011.0
20260506100043 22 111 4.8 12.9 0.00 0.00 0.00 52 1011.1
20260506095541 22 178 4.8 14.5 0.00 0.00 0.00 50 1011.0
20260506095043 22 101 4.8 14.5 0.00 0.00 0.00 53 1011.1
20260506094537 22 115 4.8 14.5 0.00 0.00 0.00 53 1011.1
20260506094037 22 97 6.4 14.5 0.00 0.00 0.00 54 1011.1
20260506093539 21 119 3.2 14.5 0.00 0.00 0.00 56 1011.1
20260506093035 21 126 6.4 12.9 0.00 0.00 0.00 56 1011.1
20260506092533 21 128 6.4 14.5 0.00 0.00 0.00 55 1011.0
20260506092033 21 115 4.8 14.5 0.00 0.00 0.00 54 1011.0
20260506091531 21 67 0.0 14.5 0.00 0.00 0.00 55 1010.8
20260506091029 21 107 6.4 14.5 0.00 0.00 0.00 54 1010.9
20260506090531 21 74 3.2 11.3 0.00 0.00 0.00 54 1010.9
20260506090026 21 89 3.2 11.3 0.00 0.00 0.00 55 1010.8
20260506085524 21 81 4.8 12.9 0.00 0.00 0.00 56 1011.0
20260506085023 21 128 6.4 12.9 0.00 0.00 0.00 55 1010.9
20260506084532 20 66 4.8 16.1 0.00 0.00 0.00 56 1010.9
20260506084020 20 99 8.0 16.1 0.00 0.00 0.00 56 1011.1
20260506083524 20 121 11.3 16.1 0.00 0.00 0.00 57 1011.0
20260506083018 20 49 8.0 11.3 0.00 0.00 0.00 58 1010.8
20260506082517 21 44 4.8 9.7 0.00 0.00 0.00 57 1010.7
20260506082020 21 43 4.8 8.0 0.00 0.00 0.00 57 1010.7
20260506081517 20 42 3.2 9.7 0.00 0.00 0.00 58 1010.7
20260506081017 20 49 4.8 11.3 0.00 0.00 0.00 58 1010.7
20260506080512 20 47 6.4 11.3 0.00 0.00 0.00 58 1010.7
20260506073503 20 32 1.6 8.0 0.00 0.00 0.00 57 1010.3
20260506073002 20 32 0.0 4.8 0.00 0.00 0.00 57 1010.2
20260506072501 20 31 1.6 4.8 0.00 0.00 0.00 55 1010.2
20260506072101 20 32 1.6 6.4 0.00 0.00 0.00 53 1010.2
20260506071558 20 29 0.0 6.4 0.00 0.00 0.00 49 1010.1
20260506071057 20 29 1.6 4.8 0.00 0.00 0.00 47 1010.0
20260506070556 19 22 1.6 6.4 0.00 0.00 0.00 47 1010.0
20260506062042 15 327 3.2 9.7 0.00 0.00 0.00 62 1010.0
20260506061542 15 338 4.8 9.7 0.00 0.00 0.00 61 1010.1
20260506061043 15 342 1.6 3.2 0.00 0.00 0.00 68 1010.0
20260506060540 15 342 0.0 4.8 0.00 0.00 0.00 66 1010.1
20260506051033 16 24 0.0 1.6 0.00 0.00 0.00 67 1009.6
20260506050530 16 28 0.0 6.4 0.00 0.00 0.00 66 1009.5
20260506045025 16 31 0.0 6.4 0.00 0.00 0.00 61 1009.5
20260506044524 17 32 3.2 4.8 0.00 0.00 0.00 58 1009.5
20260506044021 17 30 1.6 6.4 0.00 0.00 0.00 48 1009.6
20260506043523 17 30 1.6 8.0 0.00 0.00 0.00 47 1009.6
20260506043020 17 30 1.6 8.0 0.00 0.00 0.00 45 1009.4
20260506042522 17 21 3.2 6.4 0.00 0.00 0.00 43 1009.4
20260506042021 17 22 3.2 14.5 0.00 0.00 0.00 44 1009.5
20260506041520 17 29 6.4 16.1 0.00 0.00 0.00 43 1009.4
20260506041019 17 14 8.0 16.1 0.00 0.00 0.00 43 1009.4
20260506040519 17 355 8.0 12.9 0.00 0.00 0.00 44 1009.4
20260506040033 17 345 8.0 12.9 0.00 0.00 0.00 44 1009.5
20260506035519 17 10 4.8 9.7 0.00 0.00 0.00 44 1009.5
20260506035017 17 27 3.2 12.9 0.00 0.00 0.00 45 1009.4
20260506034516 17 9 3.2 12.9 0.00 0.00 0.00 44 1009.5
20260506034014 17 11 4.8 9.7 0.00 0.00 0.00 44 1009.6
20260506033515 17 9 1.6 9.7 0.00 0.00 0.00 44 1009.6